#timestamp,LO_Frequency,Hit,StdDev 
1568138415.6,286047001.0,N
1568138435.4,286047002.5,N
1568138455.3,286047001.9,N
1568138475.1,286046999.8,N
1568138495.9,286047002.7,N
1568138515.7,286047000.5,N
1568138535.5,286047000.7,N
1568138555.4,286046998.1,N
1568138575.2,286046998.2,N
1568138595.0,286047001.2,N
1568138595.9,286047001.2,N
1568138615.8,286046999.8,N
1568138635.6,286047002.5,N
1568138655.5,286046999.7,N
1568138675.3,286047002.2,N
1568138695.1,286047002.0,N
1568138715.9,286047002.5,N
1568138735.7,286047002.8,N
1568138755.6,286047001.6,N
1568138775.4,286047001.9,N
1568138795.2,286047002.0,N
1568138815.1,286047002.2,N
1568138816.0,286047002.2,N
1568138835.8,286047001.6,N
1568138855.7,286047002.5,N
1568138875.5,286047002.0,N
1568138895.3,286047000.0,N
1568138915.2,286046999.7,N
1568138935.0,286047000.9,N
1568138935.9,286047000.9,N
1568138955.7,286047000.9,N
1568138975.6,286047002.5,N
1568138995.4,286047000.1,N
1568139015.3,286047000.6,N
1568139035.1,286047000.6,N
1568139055.8,286046999.8,N
1568139075.7,286047001.9,N
1568139095.5,286047002.5,N
1568139115.4,286047001.5,N
1568139135.2,286047004.3,Y
1568139155.0,286047002.0,P
1568139155.9,286047002.0,P
1568139175.8,286047001.9,P
1568139195.6,286047001.5,Y
1568139215.5,286047000.5,P
1568139235.3,286047001.1,N
1568139255.1,286047000.6,N
1568139275.9,286047001.1,N
1568139295.7,286046998.9,N
1568139315.5,286047000.8,N
1568139335.4,286047001.1,N
1568139355.2,286047000.8,N
1568139375.1,286046999.0,N
1568139376.0,286046999.0,N
1568139395.8,286046998.6,N
1568139415.6,286046998.4,N
1568139435.5,286047001.0,N
1568139455.3,286047000.3,N
1568139475.1,286046999.9,N
1568139495.9,286047000.4,N
1568139515.7,286047000.3,N
1568139535.6,286047000.9,N
1568139555.4,286046998.7,N
1568139575.2,286046999.5,N
1568139595.1,286046999.4,N
1568139596.0,286046999.4,N
1568139615.8,286046996.9,Y
1568139635.7,286046997.4,P
1568139655.5,286046997.4,N
1568139675.3,286046996.6,N
1568139695.2,286046999.1,N
1568139715.0,286046998.8,N
1568139715.9,286046998.8,N
1568139735.7,286046996.9,N
1568139755.6,286046996.5,Y
1568139775.4,286047001.2,P
1568139795.3,286047000.7,N
1568139815.1,286046999.9,N
1568139835.8,286047000.7,N
1568139855.7,286046998.3,N
1568139875.5,286047000.3,N
1568139895.4,286047002.7,N
1568139915.2,286047002.2,N
1568139935.0,286047001.6,N
1568139935.9,286047001.6,N
1568139955.8,286047001.6,N
1568139975.6,286047002.0,N
1568139995.4,286047002.2,N
1568140015.3,286047002.1,N
1568140035.1,286047001.9,N
1568140055.9,286047001.6,N
1568140075.7,286047003.9,Y
1568140095.5,286047002.5,P
1568140115.4,286047001.9,N
1568140135.2,286047002.5,P
1568140155.1,286047002.6,Y
1568140156.0,286047002.6,P
1568140175.8,286046998.1,P
1568140195.6,286047000.7,N
1568140215.5,286047000.2,N
1568140235.3,286047002.0,N
1568140255.1,286047001.6,N
1568140275.9,286047002.1,N
1568140295.7,286047000.2,N
1568140315.6,286047000.3,N
1568140335.4,286047001.1,N
1568140355.2,286047000.3,N
1568140375.1,286047000.0,N
1568140376.0,286047000.0,N
1568140395.8,286047000.7,N
1568140415.7,286047000.7,N
1568140435.5,286047000.9,N
1568140455.3,286047000.1,N
1568140475.2,286047000.0,N
1568140495.0,286047002.1,N
1568140495.9,286047002.1,N
1568140515.7,286047001.4,N
1568140535.6,286047001.7,N
1568140555.4,286047001.6,N
1568140575.3,286047001.8,N
1568140595.1,286047002.5,N
1568140596.0,286047002.5,N
1568140615.8,286046999.9,N
1568140635.7,286046999.8,N
1568140655.5,286047002.7,N
1568140675.4,286047002.7,N
1568140695.2,286047002.6,N
1568140715.0,286047002.3,N
1568140715.9,286047002.3,N
1568140735.8,286047001.3,N
1568140755.6,286047001.8,N
1568140775.4,286047002.1,N
1568140795.3,286047002.0,N
1568140815.1,286047002.0,N
1568140835.9,286047001.9,N
1568140855.7,286047002.3,N
1568140875.5,286047000.1,N
1568140895.4,286047000.8,N
1568140915.2,286047001.0,N
1568140935.0,286047001.1,N
1568140936.0,286047001.1,N
1568140955.8,286047000.2,N
1568140975.6,286047000.9,N
1568140995.5,286047000.4,N
1568141015.3,286047001.2,N
1568141035.1,286046998.6,N
1568141055.9,286046998.5,N
1568141075.7,286046998.9,N
1568141095.6,286046998.5,N
1568141115.4,286046998.4,N
1568141135.2,286046998.3,N
1568141155.1,286046998.1,N
1568141156.0,286046998.1,N
1568141175.8,286046998.4,N
1568141195.6,286046999.4,N
1568141215.5,286046999.4,N
1568141235.3,286046998.7,N
1568141255.2,286046999.2,N
1568141275.0,286046999.6,N
1568141275.9,286046999.6,N
1568141295.7,286046998.8,N
1568141315.6,286046999.5,N
1568141335.4,286046999.4,N
1568141355.3,286046999.4,N
1568141375.1,286046996.9,N
1568141376.0,286046996.9,N
1568141395.8,286046999.5,N
1568141415.7,286046998.8,N
1568141435.5,286046998.7,N
1568141455.3,286046998.7,N
1568141475.2,286046998.7,N
1568141495.0,286046998.3,N
1568141495.9,286046998.3,N
1568141515.8,286046998.7,N
1568141535.6,286046998.7,N
1568141555.4,286046999.6,N
1568141575.3,286046998.7,N
1568141595.1,286046999.2,N
1568141615.9,286046997.2,Y
1568141635.7,286047000.8,P
1568141655.5,286047000.8,N
1568141675.4,286046998.1,N
1568141695.2,286047000.8,N
1568141715.0,286047000.5,N
1568141716.0,286047000.5,N
1568141735.8,286047000.5,N
1568141755.6,286047000.5,N
1568141775.5,286046998.7,N
1568141795.3,286046998.4,N
1568141815.1,286046998.3,N
1568141835.9,286046998.7,N
1568141855.7,286046999.0,N
1568141875.6,286047000.8,N
1568141895.4,286046998.6,N
1568141915.2,286046998.6,N
1568141935.1,286046998.5,N
1568141936.0,286046998.5,N
1568141955.8,286047000.8,N
1568141975.7,286047000.8,N
1568141995.5,286047000.9,N
